EW9240 Weather Reports


Display with metric or nautical units.
time (UTC)temp
F
wind
direction
speed
MPH
gust
MPH
rain 1hr
in
rain 24hr
in
rain mn
in
humidity
%
barometer
mb
20260831063014 60 297 0.0 0.0 0.00 0.00 0.00 79 1012.7
20260831061607 61 297 0.0 0.0 0.00 0.00 0.00 77 1012.8
20260831060047 61 297 0.0 0.0 0.00 0.00 0.00 77 1013.0
20260831054556 62 297 0.0 0.0 0.00 0.00 0.00 76 1013.0
20260831053042 62 297 0.0 0.0 0.00 0.00 0.00 75 1013.1
20260831051527 63 297 0.0 0.0 0.00 0.00 0.00 73 1013.3
20260831050005 64 297 0.0 1.0 0.00 0.00 0.00 71 1013.5
20260831044558 64 272 0.0 2.0 0.00 0.00 0.00 71 1013.5
20260831043045 65 301 0.0 0.0 0.00 0.00 0.00 69 1013.6
20260831041531 66 289 0.0 2.0 0.00 0.00 0.00 68 1013.7
20260831040016 66 297 0.0 1.0 0.00 0.00 0.00 67 1013.7
20260831034506 67 284 0.0 2.0 0.00 0.00 0.00 66 1013.7
20260831033016 67 287 0.0 4.0 0.00 0.00 0.00 64 1013.7
20260831031501 68 274 0.0 0.0 0.00 0.00 0.00 63 1013.7
20260831030110 68 278 0.0 3.0 0.00 0.00 0.00 62 1013.7
20260831024607 69 295 1.0 4.0 0.00 0.00 0.00 61 1013.7
20260831023004 69 323 0.0 4.0 0.00 0.00 0.00 60 1013.9
20260831021554 69 278 3.0 6.0 0.00 0.00 0.00 59 1014.0
20260831020041 70 269 2.0 5.0 0.00 0.00 0.00 58 1013.9
20260831014536 70 288 0.0 5.0 0.00 0.00 0.00 57 1014.1
20260831013020 70 305 2.0 8.0 0.00 0.00 0.00 57 1014.2
20260831011503 71 276 0.0 4.0 0.00 0.00 0.00 56 1014.3
20260831010047 71 325 3.0 7.0 0.00 0.00 0.00 55 1014.5
20260831004534 71 304 1.0 4.0 0.00 0.00 0.00 56 1014.6
20260831003018 71 288 0.0 3.0 0.00 0.00 0.00 56 1014.6
20260831001545 71 271 1.0 5.0 0.00 0.00 0.00 56 1014.8
20260831000033 71 276 2.0 6.0 0.00 0.00 0.00 55 1014.8
20260830234513 70 302 0.0 5.0 0.00 0.00 0.00 55 1015.0
20260830233104 70 266 3.0 8.0 0.00 0.00 0.00 55 1015.0
20260830231542 70 319 1.0 6.0 0.00 0.00 0.00 54 1015.2
20260830230026 70 270 0.0 8.0 0.00 0.00 0.00 55 1015.4
20260830224512 70 287 1.0 6.0 0.00 0.00 0.00 55 1015.7
20260830223103 69 285 1.0 5.0 0.00 0.00 0.00 56 1016.0
20260830221525 68 295 2.0 7.0 0.00 0.00 0.00 56 1016.3
20260830220032 68 293 1.0 7.0 0.00 0.00 0.00 57 1016.4
20260830214515 68 274 1.0 4.0 0.00 0.00 0.00 58 1016.7
20260830213103 68 283 2.0 7.0 0.00 0.00 0.00 58 1016.8
20260830210007 67 349 3.0 6.0 0.00 0.00 0.00 58 1017.2
20260830204559 66 348 0.0 7.0 0.00 0.00 0.00 60 1017.3
20260830203049 65 309 1.0 7.0 0.00 0.00 0.00 61 1017.6
20260830201539 65 290 2.0 5.0 0.00 0.00 0.00 60 1017.8
20260830200010 65 276 3.0 5.0 0.00 0.00 0.00 60 1017.9
20260830194608 64 272 0.0 4.0 0.00 0.00 0.00 62 1018.0
20260830193049 65 271 2.0 8.0 0.00 0.00 0.00 62 1018.2
20260830191531 64 275 1.0 4.0 0.00 0.00 0.00 62 1018.3
20260830190028 64 301 2.0 5.0 0.00 0.00 0.00 64 1018.4
20260830184503 63 306 1.0 4.0 0.00 0.00 0.00 66 1018.6
20260830183018 63 279 0.0 3.0 0.00 0.00 0.00 66 1018.6
20260830181503 63 51 0.0 4.0 0.00 0.00 0.00 70 1018.5
20260830180056 62 266 0.0 4.0 0.00 0.00 0.00 70 1018.6
20260830174545 61 335 1.0 4.0 0.00 0.00 0.00 72 1018.6
20260830173108 62 285 2.0 5.0 0.00 0.00 0.00 70 1018.6
20260830171544 62 305 0.0 4.0 0.00 0.00 0.00 71 1018.6
20260830170024 61 300 1.0 4.0 0.00 0.00 0.00 74 1018.6
20260830164527 61 292 0.0 3.0 0.00 0.00 0.00 76 1018.6
20260830163111 60 128 0.0 3.0 0.00 0.00 0.00 77 1018.7
20260830161542 59 26 1.0 3.0 0.00 0.00 0.00 79 1018.9
20260830160030 59 25 0.0 3.0 0.00 0.00 0.00 80 1018.8
20260830154513 59 309 0.0 1.0 0.00 0.00 0.00 81 1018.8
20260830153104 58 124 0.0 1.0 0.00 0.00 0.00 82 1019.0
20260830151505 58 124 0.0 1.0 0.00 0.00 0.00 83 1019.1
20260830144504 57 280 0.0 0.0 0.00 0.00 0.00 85 1019.1
20260830143059 56 283 0.0 0.0 0.00 0.00 0.00 86 1019.1
20260830141541 55 283 0.0 0.0 0.00 0.00 0.00 88 1019.1
20260830140025 55 283 0.0 0.0 0.00 0.00 0.00 88 1018.9
20260830134514 54 283 0.0 0.0 0.00 0.01 0.00 88 1018.9
20260830133141 54 283 0.0 0.0 0.00 0.01 0.00 88 1018.9
20260830131551 53 283 0.0 0.0 0.00 0.01 0.00 88 1018.8
20260830130100 53 283 0.0 0.0 0.00 0.01 0.00 88 1018.7
20260830124604 53 283 0.0 0.0 0.00 0.01 0.00 88 1018.7
20260830123038 52 283 0.0 0.0 0.00 0.01 0.00 89 1018.6
20260830121517 52 283 0.0 0.0 0.00 0.01 0.00 89 1018.6
20260830120002 51 283 0.0 0.0 0.00 0.01 0.00 89 1018.5
20260830114606 51 283 0.0 0.0 0.00 0.01 0.00 88 1018.5
20260830113011 51 283 0.0 0.0 0.00 0.01 0.00 88 1018.5
20260830111605 52 283 0.0 0.0 0.00 0.01 0.00 88 1018.4
20260830110047 52 283 0.0 0.0 0.00 0.01 0.00 87 1018.5
20260830104535 52 283 0.0 0.0 0.00 0.01 0.00 87 1018.5
20260830103020 53 283 0.0 0.0 0.00 0.01 0.00 87 1018.5
20260830101504 53 283 0.0 0.0 0.00 0.01 0.00 87 1018.4
20260830100053 53 283 0.0 0.0 0.00 0.01 0.00 86 1018.3
20260830094530 54 283 0.0 0.0 0.00 0.01 0.00 85 1018.3
20260830093014 54 283 0.0 0.0 0.00 0.01 0.00 85 1018.3
20260830091602 54 283 0.0 0.0 0.00 0.01 0.00 84 1018.3
20260830090050 55 283 0.0 0.0 0.00 0.01 0.00 84 1018.3
20260830084533 55 283 0.0 0.0 0.00 0.01 0.00 84 1018.3
20260830083051 55 283 0.0 0.0 0.00 0.01 0.00 83 1018.3
20260830081504 55 283 0.0 0.0 0.00 0.01 0.00 82 1018.3
20260830080055 56 283 0.0 0.0 0.00 0.01 0.00 81 1018.3
20260830074547 56 283 0.0 0.0 0.00 0.01 0.00 80 1018.3
20260830073020 57 283 0.0 0.0 0.00 0.01 0.00 78 1018.3
20260830071509 57 283 0.0 0.0 0.00 0.01 0.00 77 1018.4
20260830070104 58 283 0.0 0.0 0.00 0.01 0.00 76 1018.3
20260830064524 59 280 0.0 0.0 0.00 0.01 0.01 75 1018.4